Simultaneous Nadir Overpasses (SNOs) Predictions

Prediction of SNOs between FY3D and AQUA Satellite Orbit:

Table of predicted SNOs for the next 14.0 days since TLE Epoch: 12/2/2023
Index Date (FY3D) Time (FY3D) Lat,Lon (FY3D) SZA (FY3D ) Date (AQUA) Time (AQUA) Lat,Lon (AQUA) SZA (AQUA ) Distance(km) Time Diff (sec)
1 12/02/2023 21:30:42 -79.05, 18.11 78.58 12/02/2023 21:31:04 -79.05, 18.07 78.58 0.91 22
2 12/02/2023 22:21:20 78.74,-172.45 101.03 12/02/2023 22:20:20 78.74,-172.46 101.04 0.27 60
3 12/05/2023 10:25:24 -79.08,-175.75 78.18 12/05/2023 10:25:58 -79.08,-175.84 78.18 1.96 34
4 12/05/2023 11:16:02 78.78, -6.31 101.43 12/05/2023 11:15:14 78.78, -6.38 101.45 1.59 48
5 12/07/2023 23:20:06 -79.12, -9.69 77.81 12/07/2023 23:20:50 -79.13, -9.82 77.80 3.05 44
6 12/08/2023 00:10:43 78.79, 159.99 101.76 12/08/2023 00:10:05 78.79, 159.86 101.78 2.98 38
7 12/10/2023 12:14:50 -79.24, 155.77 77.38 12/10/2023 12:15:41 -79.23, 155.87 77.41 2.24 51
8 12/10/2023 13:05:28 78.95, -34.77 102.23 12/10/2023 13:04:57 78.94, -34.67 102.23 2.10 31
9 12/13/2023 01:09:29 -79.23, -37.81 77.17 12/13/2023 01:10:26 -79.23, -37.76 77.19 1.13 57
10 12/13/2023 02:00:07 78.95, 131.63 102.45 12/13/2023 01:59:42 78.94, 131.67 102.44 0.89 25
11 12/15/2023 14:04:09 -79.24, 128.53 77.00 12/15/2023 14:05:10 -79.24, 128.53 77.01 0.07 61



Historial Predications of SNOs between FY3D and AQUA
